KSDLKSAN

Guest
Details From KSDL - SCOTTSDALE
To KSAN - San Diego Intl
Flight Number -
Tags decoded
Created
Modified
Stats Distance 271 nm / 501 km
Max Altitude 0 ft / 0 m
Waypoints 2
Social Downloads 0
Likes 0
Share VATSIM

Download

Looking for another format? Having issues loading an existing format? Contact us
Advertisement - Login to hide

Notes

Requested: KSDL KSAN

Route

KSDL KSAN

ID Type Via Altitude Latitude Longitude Leg Dist Tot Dist Heading (true) Name
O KSDL APT - 0 ft / 0 m 33.62288˚ -111.91053˚ - 0 nm - SCOTTSDALE
O KSAN APT - 0 ft / 0 m 32.73356˚ -117.18966˚ 270 nm 270 nm 260° / 257° San Diego Intl

Altitude Profile

Advertisement - Login to hide

Weather


0- 5 10 15 20 25 30 35+ Temperature / ° C

Clouds and Precipitation
Forecast for 2018-05-25 12:00 UTC. Updated 6 hours ago

Ground ~20,000 ft ~40,000 ft Winds

KSDL

Details ICAO KSDL (ZSY)
Name SCOTTSDALE
Region United States
Timezone America/Phoenix (UTC-7.0)
Stats Elevation 1,510 ft / 460 m (AMSL)
Location 33.622881° -111.910535°
Runways 1
Magnetic Variation 10.272° E

METAR

KSDL 251553Z 11008KT 10SM CLR 28/00 A3000 RMK AO2 SLP131 T02830000

Decode

TAF

TAF KSDL 251120Z 2512/2612 VRB03KT P6SM SKC FM251700 15007KT P6SM SKC FM252100 24008KT P6SM SKC FM260500 VRB04KT P6SM FEW250

Decode

Departure Runways

ID Width Length Bearing (true) Bearing (mag) Surface Threshold Offset Overrun Length
03 100 ft / 30 m 8,253 ft / 2,516 m 43.82° 33.55° Asphalt 740 ft / 226 m 0 ft / 0 m
21 100 ft / 30 m 8,253 ft / 2,516 m 223.83° 213.56° Asphalt 400 ft / 122 m 0 ft / 0 m

KSAN

Details ICAO KSAN (SAN)
Name San Diego Intl
Region United States
Timezone America/Los_Angeles (UTC-7.0)
Stats Elevation 17 ft / 5 m (AMSL)
Location 32.733556° -117.189658°
Runways 1
Magnetic Variation 11.487° E

METAR

KSAN 251551Z 29011KT 10SM SCT022 BKN044 18/12 A3014 RMK AO2 SLP205 T01780117

Decode

TAF

TAF AMD KSAN 251445Z 2515/2618 VRB04KT P6SM SCT020 BKN040 FM251800 29011G18KT P6SM SCT040 FM260400 31005KT P6SM BKN035 FM260600 VRB04KT P6SM SCT025 BKN035

Decode

Destination Runways

ID Width Length Bearing (true) Bearing (mag) Surface Threshold Offset Overrun Length
09 200 ft / 61 m 9,387 ft / 2,861 m 106.07° 94.58° Asphalt 699 ft / 213 m 269 ft / 82 m
27 200 ft / 61 m 9,387 ft / 2,861 m 286.08° 274.59° Asphalt 1,811 ft / 552 m 0 ft / 0 m

Approach Navaids

Runway Type Ident Frequency Range Bearing (true) Bearing (mag) Slope Elevation
09 Localiser ISAN 111.55 MHz 18 nm / 33 km 106.08° 94.59° - 17 ft / 5 m (AMSL)
09 Glidescope ISAN 111.55 MHz 10 nm / 19 km 106.08° 94.59° 3.22° 13 ft / 4 m (AMSL)
09 DME ISAN 111.55 MHz 18 nm / 33 km - - - 29 ft / 9 m (AMSL)
27 Localiser IUBR 110.90 MHz 18 nm / 33 km 286.07° 274.58° - 13 ft / 4 m (AMSL)
27 DME IUBR 110.90 MHz 18 nm / 33 km - - - 26 ft / 8 m (AMSL)

Popular Alternatives